DELTA 1 DEB, 7139

Orbit data source: Space-Track

DELTA 1 DEB, 7139 is space debris in SSO originally from a launch on Tue, 06 Nov 1973 UTC launched from the Air Force Western Test Range (AFWTR). Debris objects in space refer to the collection of defunct objects orbiting the Earth. Examples of debris include non-operational satellites, rocket bodies, and fragments generated from explosions, collisions, or faulty payload assembly.

Loading next visibility...
Identifier
7139, 1973-086DD
Orbit
SSO
Country
Flag of USUS
Related business
Manufacturer
Unknown
Mission
Spacecraft
Bus & Motor
Unknown
Mass
Unknown
Launch date (UTC)
1973-11-06 (53 years ago)
Launch vehicle
Unknown
Launch site
Air Force Western Test Range (AFWTR)
Object type
Payload
Rocket body
Debris
Shape & HBR
Unknown shape, 0.2 m
Radar Cross Section
Medium (>0.1 m² and <1 m²)

Expand to show TLE details & history
Last TLE update: 1 day ago

TLE from 1 day ago
0 DELTA 1 DEB
1 07139U 73086DD  26208.44956212  .00000229  00000-0  21050-2 0  9998
2 07139 102.4150  19.4038 0064209 161.8331 225.5701 12.37899772370258
Epoch: 2026-07-27T10:47Z
TLE epoch observation values (Epoch: 2026-07-27T10:47:22.167Z)
Latitude
26.23749°
Longitude
-93.77006°
Altitude
1,554.023 km
Speed
7.076 km/s
True Right ascension
00h 52m 49s
True Declination
26° 06' 54"
Sunlit
Object was in daylight at epoch
Visualization orbit readout
Latitude
Unknown
Longitude
Unknown
Altitude
Unknown
Speed
Unknown
Apparent Right ascension
Unknown
Apparent Declination
Unknown
Sunlit
N/A
Visualization observer readout
Local Sidereal Time
07:34:24
Azimuth
Unknown
Elevation
Unknown
Doppler factor
Unknown
Orbital elements
Apogee altitude
1,563.79 km
Perigee altitude
1,462.452 km
Semi-major axis
7,891.258 km
Eccentricity
0.00642
Inclination
102.415°
RAAN
19.4038°
Arg. of periapsis
161.8331°
True anomaly
225.04762°
Mean anomaly
225.5701°
Eccentric anomaly
225.30856°
Mean motion
3.09616 °/min
Orbital period
116.27 mins
BSTAR
0.002105
Loading maneuver chart data...
Computing Atmospheric mass density...
Loading historical data...
Loading historical data...
Loading historical data...
Loading historical data...
Loading historical data...
Loading historical data...
Loading historical data...

Documentation

Showing up to 5 results
|